#timestamp,LO_Frequency,Hit 
1501632015.7,286046967.7,N
1501632035.5,286046968.9,N
1501632055.3,286046970.7,N
1501632075.1,286046968.2,N
1501632095.9,286046970.3,N
1501632115.7,286046968.1,N
1501632135.5,286046968.2,N
1501632155.4,286046968.7,N
1501632175.2,286046966.3,N
1501632195.0,286046970.2,N
1501632195.9,286046970.2,N
1501632215.8,286046968.6,N
1501632235.6,286046971.1,N
1501632255.4,286046972.1,N
1501632275.3,286046971.6,N
1501632295.1,286046971.6,N
1501632315.8,286046971.9,N
1501632335.7,286046971.3,N
1501632355.5,286046972.8,N
1501632375.3,286046974.0,N
1501632395.2,286046974.0,N
1501632415.9,286046972.5,N
1501632435.7,286046975.1,N
1501632455.6,286046977.2,N
1501632475.4,286046973.1,N
1501632495.2,286046972.3,N
1501632515.0,286046970.1,N
1501632516.0,286046970.1,N
1501632535.8,286046968.1,N
1501632555.6,286046969.2,N
1501632575.4,286046966.4,N
1501632595.3,286046968.6,N
1501632615.1,286046968.0,N
1501632635.8,286046966.8,N
1501632655.7,286046970.8,N
1501632675.5,286046969.7,N
1501632695.3,286046973.8,N
1501632715.2,286046971.1,N
1501632735.9,286046972.3,N
1501632755.7,286046968.2,N
1501632775.6,286046970.6,N
1501632795.4,286046970.4,N
1501632815.2,286046969.2,N
1501632835.0,286046967.4,N
1501632836.0,286046967.4,N
1501632855.8,286046966.1,N
1501632875.6,286046966.5,N
1501632895.4,286046968.0,N
1501632915.3,286046970.8,N
1501632935.1,286046970.3,N
1501632955.8,286046970.4,N
1501632975.7,286046968.9,N
1501632995.5,286046969.1,N
1501633015.3,286046967.0,N
1501633035.2,286046967.1,N
1501633055.9,286046964.7,N
1501633075.7,286046967.4,N
1501633095.6,286046964.2,N
1501633115.4,286046961.4,N
1501633135.2,286046962.3,N
1501633155.0,286046958.4,N
1501633156.0,286046958.4,N
1501633175.9,286046959.2,N
1501633195.7,286046958.7,N
1501633215.5,286046958.8,N
1501633235.4,286046958.4,N
1501633255.2,286046958.1,N
1501633275.0,286046961.0,N
1501633275.9,286046961.0,N
1501633295.8,286046962.4,N
1501633315.6,286046960.2,N
1501633335.4,286046958.8,N
1501633355.3,286046961.1,N
1501633375.1,286046955.4,N
1501633395.9,286046954.5,N
1501633415.7,286046956.3,N
1501633435.5,286046955.9,N
1501633455.4,286046957.5,N
1501633475.2,286046957.9,N
1501633495.0,286046960.5,N
1501633495.9,286046960.5,N
1501633515.8,286046961.5,N
1501633535.6,286046961.1,N
1501633555.4,286046961.1,N
1501633575.2,286046962.2,N
1501633595.1,286046962.2,N
1501633596.0,286046962.2,N
1501633615.8,286046962.2,N
1501633635.6,286046962.3,N
1501633655.5,286046959.7,N
1501633675.3,286046960.8,N
1501633695.1,286046960.0,N
1501633715.9,286046960.5,N
1501633735.7,286046960.7,N
1501633755.5,286046961.8,N
1501633775.4,286046962.0,N
1501633795.2,286046961.9,N
1501633815.0,286046961.7,N
1501633815.9,286046961.7,N
1501633835.8,286046961.3,N
1501633855.6,286046963.2,N
1501633875.4,286046965.3,N
1501633895.3,286046964.9,N
1501633915.1,286046967.4,N
1501633916.0,286046967.4,N
1501633935.8,286046965.1,N
1501633955.7,286046965.0,N
1501633975.5,286046964.8,N
1501633995.3,286046965.0,N
1501634015.2,286046963.1,N
1501634035.9,286046963.5,N
1501634055.7,286046964.7,N
1501634075.5,286046965.3,N
1501634095.4,286046963.6,N
1501634115.2,286046963.4,N
1501634135.0,286046964.8,N
1501634135.9,286046964.8,N
1501634155.8,286046964.6,N
1501634175.6,286046965.0,N
1501634195.4,286046963.8,N
1501634215.3,286046961.8,N
1501634235.1,286046963.7,N
1501634236.0,286046963.7,N
1501634255.3,286046961.5,N
1501634275.1,286046958.5,N
1501634276.0,286046958.5,N
1501634295.8,286046960.4,N
1501634315.7,286046959.7,N
1501634335.5,286046961.1,N
1501634355.3,286046958.2,N
1501634375.2,286046962.3,N
1501634395.9,286046964.3,N
1501634415.7,286046961.9,N
1501634435.5,286046963.7,N
1501634455.4,286046961.5,N
1501634475.2,286046965.5,N
1501634495.0,286046962.9,N
1501634495.9,286046962.9,N
1501634515.8,286046963.1,N
1501634535.6,286046962.9,N
1501634555.4,286046963.7,N
1501634575.3,286046963.7,N
1501634595.1,286046965.2,N
1501634615.8,286046965.4,N
1501634635.7,286046965.5,N
1501634655.5,286046963.2,N
1501634675.6,286046965.3,N
1501634695.4,286046965.3,N
1501634715.2,286046963.9,N
1501634735.1,286046961.3,N
1501634736.0,286046961.3,N
1501634755.8,286046964.0,N
1501634775.6,286046964.1,N
1501634795.5,286046964.1,N
1501634815.3,286046964.9,N
1501634835.1,286046965.7,N
1501634855.9,286046965.5,N
1501634875.7,286046963.1,N
1501634895.5,286046967.6,N
1501634915.4,286046969.1,N
1501634935.2,286046965.2,N
1501634955.0,286046964.3,N
1501634955.9,286046964.3,N
1501634975.8,286046962.5,N
1501634995.6,286046961.4,N
1501635015.4,286046963.9,N
1501635035.3,286046964.1,N
1501635055.1,286046963.2,N
1501635056.0,286046963.2,N
1501635075.8,286046963.8,N
1501635095.7,286046961.7,N
1501635115.5,286046964.2,N
1501635135.3,286046963.7,N
1501635155.1,286046965.4,N
1501635175.9,286046965.6,N
1501635195.7,286046963.9,N
1501635215.5,286046962.6,N
1501635235.4,286046962.2,N
1501635255.2,286046961.6,N
1501635275.0,286046964.1,N
1501635275.9,286046964.1,N
1501635295.8,286046962.4,N
1501635315.6,286046962.8,N
1501635335.4,286046959.9,N
1501635355.3,286046962.8,N
1501635375.1,286046960.0,N
1501635376.0,286046960.0,N
1501635395.8,286046962.1,N
1501635415.7,286046962.0,N
1501635435.5,286046965.8,N
1501635455.3,286046963.2,N
1501635475.1,286046964.3,N
1501635495.9,286046963.3,N
1501635515.7,286046964.9,N
1501635535.5,286046964.6,N
1501635555.4,286046965.4,N
1501635575.2,286046963.4,N
1501635595.0,286046964.2,N
1501635595.9,286046964.2,N
